Meteo orario Aars

Oggi, 19 Giugno, Sabato

Tempo Temperatura Precipitazioni Vento Pressione Umidità
00:00 +15°C° 0.3 mm 1 m/s 757 mm Hg 89%
01:00 +16°C° 0.3 mm 1 m/s 757 mm Hg 91%
02:00 +16°C° 0 mm 1 m/s 756 mm Hg 92%
03:00 +16°C° 0 mm 2 m/s 756 mm Hg 92%
04:00 +16°C° 0 mm 3 m/s 755 mm Hg 93%
05:00 +16°C° 0.1 mm 2 m/s 755 mm Hg 92%
06:00 +17°C° 0.1 mm 2 m/s 755 mm Hg 91%
07:00 +18°C° 0.1 mm 2 m/s 755 mm Hg 90%
08:00 +20°C° 0 mm 3 m/s 755 mm Hg 85%
09:00 +22°C° 0 mm 4 m/s 754 mm Hg 81%
10:00 +24°C° 0 mm 6 m/s 754 mm Hg 77%
11:00 +23°C° 0.2 mm 6 m/s 754 mm Hg 78%
12:00 +23°C° 0.2 mm 7 m/s 754 mm Hg 79%
13:00 +22°C° 0.2 mm 8 m/s 754 mm Hg 81%
14:00 +21°C° 0.1 mm 8 m/s 755 mm Hg 80%
15:00 +18°C° 0.1 mm 7 m/s 755 mm Hg 80%
16:00 +16°C° 0.1 mm 7 m/s 756 mm Hg 80%
17:00 +15°C° 0 mm 7 m/s 756 mm Hg 80%
18:00 +14°C° 0 mm 7 m/s 757 mm Hg 80%
19:00 +13°C° 0 mm 6 m/s 757 mm Hg 80%
20:00 +13°C° 0 mm 6 m/s 758 mm Hg 79%
21:00 +11°C° 0 mm 6 m/s 758 mm Hg 78%
22:00 +11°C° 0 mm 6 m/s 758 mm Hg 76%
23:00 +9°C° 0 mm 5 m/s 758 mm Hg 82%

Domani, 20 Giugno, Domenica

Tempo Temperatura Precipitazioni Vento Pressione Umidità
00:00 +8°C° 0 mm 4 m/s 758 mm Hg 87%
01:00 +7°C° 0 mm 4 m/s 758 mm Hg 93%
02:00 +8°C° 0 mm 3 m/s 758 mm Hg 93%
03:00 +8°C° 0 mm 3 m/s 758 mm Hg 94%
04:00 +8°C° 0 mm 3 m/s 758 mm Hg 94%
05:00 +9°C° 0 mm 2 m/s 757 mm Hg 89%
06:00 +10°C° 0 mm 2 m/s 757 mm Hg 84%
07:00 +13°C° 0 mm 2 m/s 757 mm Hg 79%
08:00 +14°C° 0 mm 2 m/s 757 mm Hg 73%
09:00 +16°C° 0 mm 3 m/s 757 mm Hg 67%
10:00 +18°C° 0 mm 3 m/s 756 mm Hg 61%
11:00 +19°C° 0 mm 4 m/s 756 mm Hg 62%
12:00 +20°C° 0 mm 5 m/s 755 mm Hg 63%
13:00 +21°C° 0 mm 5 m/s 754 mm Hg 64%
14:00 +20°C° 0.1 mm 5 m/s 754 mm Hg 70%
15:00 +20°C° 0.1 mm 5 m/s 753 mm Hg 77%
16:00 +19°C° 0.1 mm 4 m/s 753 mm Hg 84%
17:00 +19°C° 0.3 mm 4 m/s 752 mm Hg 87%
18:00 +20°C° 0.3 mm 4 m/s 751 mm Hg 90%
19:00 +20°C° 0.3 mm 4 m/s 751 mm Hg 93%
20:00 +20°C° 0 mm 4 m/s 751 mm Hg 95%
21:00 +19°C° 0 mm 4 m/s 751 mm Hg 96%
22:00 +19°C° 0 mm 4 m/s 751 mm Hg 97%
23:00 +18°C° 0 mm 3 m/s 751 mm Hg 98%

Dopodomani, 21 Giugno, Lunedi

Tempo Temperatura Precipitazioni Vento Pressione Umidità
00:00 +17°C° 0 mm 3 m/s 751 mm Hg 98%
01:00 +16°C° 0 mm 3 m/s 751 mm Hg 98%
02:00 +16°C° 0 mm 2 m/s 751 mm Hg 98%
03:00 +16°C° 0 mm 2 m/s 752 mm Hg 98%
04:00 +15°C° 0 mm 2 m/s 752 mm Hg 98%
05:00 +16°C° 0 mm 2 m/s 752 mm Hg 97%
06:00 +16°C° 0 mm 2 m/s 752 mm Hg 97%
07:00 +16°C° 0 mm 2 m/s 752 mm Hg 96%
08:00 +16°C° 0.1 mm 2 m/s 752 mm Hg 95%
09:00 +16°C° 0.1 mm 2 m/s 753 mm Hg 94%
10:00 +16°C° 0.1 mm 2 m/s 753 mm Hg 94%
11:00 +16°C° 0.1 mm 2 m/s 753 mm Hg 93%
12:00 +16°C° 0.1 mm 2 m/s 753 mm Hg 92%
13:00 +16°C° 0.1 mm 2 m/s 753 mm Hg 91%
14:00 +17°C° 0 mm 3 m/s 753 mm Hg 88%
15:00 +17°C° 0 mm 3 m/s 753 mm Hg 86%
16:00 +17°C° 0 mm 3 m/s 753 mm Hg 84%
17:00 +17°C° 0 mm 3 m/s 753 mm Hg 84%
18:00 +17°C° 0 mm 3 m/s 753 mm Hg 84%
19:00 +15°C° 0 mm 4 m/s 753 mm Hg 84%
20:00 +14°C° 0 mm 3 m/s 754 mm Hg 87%
21:00 +13°C° 0 mm 3 m/s 754 mm Hg 90%
22:00 +11°C° 0 mm 3 m/s 754 mm Hg 93%
23:00 +11°C° 0 mm 3 m/s 754 mm Hg 93%

22 Giugno, Martedi

Tempo Temperatura Precipitazioni Vento Pressione Umidità
00:00 +11°C° 0 mm 3 m/s 754 mm Hg 93%
01:00 +11°C° 0 mm 3 m/s 753 mm Hg 92%
02:00 +11°C° 0 mm 4 m/s 754 mm Hg 91%
03:00 +11°C° 0 mm 4 m/s 754 mm Hg 89%
04:00 +12°C° 0 mm 4 m/s 754 mm Hg 88%
05:00 +13°C° 0 mm 3 m/s 754 mm Hg 87%
06:00 +13°C° 0 mm 3 m/s 754 mm Hg 86%
07:00 +14°C° 0 mm 3 m/s 754 mm Hg 86%
08:00 +16°C° 0 mm 3 m/s 754 mm Hg 82%
09:00 +18°C° 0 mm 3 m/s 755 mm Hg 78%
10:00 +19°C° 0 mm 2 m/s 755 mm Hg 74%
11:00 +19°C° 0 mm 3 m/s 755 mm Hg 73%
12:00 +19°C° 0 mm 3 m/s 756 mm Hg 73%
13:00 +20°C° 0 mm 4 m/s 756 mm Hg 72%
14:00 +20°C° 0 mm 4 m/s 756 mm Hg 74%
15:00 +19°C° 0 mm 4 m/s 757 mm Hg 75%
16:00 +19°C° 0 mm 4 m/s 757 mm Hg 77%
17:00 +18°C° 0 mm 4 m/s 757 mm Hg 79%
18:00 +17°C° 0 mm 4 m/s 758 mm Hg 82%
19:00 +15°C° 0 mm 4 m/s 758 mm Hg 84%
20:00 +15°C° 0 mm 4 m/s 758 mm Hg 85%
21:00 +14°C° 0 mm 3 m/s 759 mm Hg 86%
22:00 +13°C° 0 mm 3 m/s 759 mm Hg 86%
23:00 +13°C° 0 mm 3 m/s 759 mm Hg 87%

23 Giugno, Mercoledi

Tempo Temperatura Precipitazioni Vento Pressione Umidità
00:00 +14°C° 0 mm 2 m/s 759 mm Hg 87%
01:00 +13°C° 0 mm 2 m/s 759 mm Hg 88%
02:00 +13°C° 0 mm 2 m/s 759 mm Hg 87%
03:00 +13°C° 0 mm 1 m/s 760 mm Hg 87%
04:00 +13°C° 0 mm 1 m/s 760 mm Hg 87%
05:00 +14°C° 0 mm 1 m/s 760 mm Hg 85%
06:00 +15°C° 0 mm 1 m/s 760 mm Hg 84%
07:00 +15°C° 0 mm 1 m/s 760 mm Hg 83%
08:00 +16°C° 0 mm 1 m/s 760 mm Hg 81%
09:00 +18°C° 0 mm 1 m/s 760 mm Hg 79%
10:00 +18°C° 0 mm 1 m/s 760 mm Hg 77%
11:00 +19°C° 0 mm 1 m/s 760 mm Hg 76%
12:00 +19°C° 0 mm 1 m/s 760 mm Hg 76%
13:00 +20°C° 0 mm 1 m/s 760 mm Hg 76%
14:00 +20°C° 0 mm 1 m/s 760 mm Hg 76%
15:00 +20°C° 0 mm 1 m/s 760 mm Hg 77%
16:00 +20°C° 0 mm 1 m/s 760 mm Hg 78%
17:00 +19°C° 0.4 mm 1 m/s 760 mm Hg 83%
18:00 +18°C° 0.4 mm 1 m/s 760 mm Hg 89%
19:00 +16°C° 0.4 mm 2 m/s 760 mm Hg 94%
20:00 +15°C° 0.2 mm 2 m/s 760 mm Hg 95%
21:00 +15°C° 0.2 mm 2 m/s 760 mm Hg 95%
22:00 +15°C° 0.2 mm 2 m/s 760 mm Hg 96%
23:00 +14°C° 0.3 mm 2 m/s 760 mm Hg 96%

24 Giugno, Giovedi

Tempo Temperatura Precipitazioni Vento Pressione Umidità
00:00 +14°C° 0.3 mm 2 m/s 760 mm Hg 96%
01:00 +14°C° 0.3 mm 2 m/s 760 mm Hg 96%
02:00 +14°C° 0.1 mm 2 m/s 760 mm Hg 96%
03:00 +14°C° 0.1 mm 2 m/s 759 mm Hg 97%
04:00 +14°C° 0.1 mm 2 m/s 759 mm Hg 97%
05:00 +15°C° 0 mm 2 m/s 759 mm Hg 96%
06:00 +14°C° 0 mm 3 m/s 759 mm Hg 95%
07:00 +16°C° 0 mm 3 m/s 758 mm Hg 94%
08:00 +17°C° 0 mm 3 m/s 758 mm Hg 90%
09:00 +17°C° 0 mm 3 m/s 758 mm Hg 86%
10:00 +18°C° 0 mm 2 m/s 758 mm Hg 81%
11:00 +18°C° 0.4 mm 3 m/s 757 mm Hg 84%
12:00 +18°C° 0.4 mm 3 m/s 757 mm Hg 86%
13:00 +17°C° 0.4 mm 3 m/s 757 mm Hg 89%
14:00 +17°C° 0.9 mm 3 m/s 757 mm Hg 91%
15:00 +15°C° 0.9 mm 4 m/s 756 mm Hg 93%
16:00 +15°C° 0.9 mm 4 m/s 756 mm Hg 95%
17:00 +15°C° 0.6 mm 4 m/s 756 mm Hg 95%
18:00 +14°C° 0.6 mm 5 m/s 755 mm Hg 96%
19:00 +14°C° 0.6 mm 5 m/s 755 mm Hg 97%
20:00 +14°C° 0.7 mm 5 m/s 755 mm Hg 97%
21:00 +13°C° 0.7 mm 6 m/s 755 mm Hg 97%
22:00 +12°C° 0.7 mm 7 m/s 754 mm Hg 97%
23:00 +12°C° 1.5 mm 7 m/s 754 mm Hg 97%
Mostrare altro

Abbiamo bisogno del tuo consenso

Meteoprog e i nostri fornitori di servizi possono memorizzare e accedere a dati personali come cookie, identificatori di dispositivi o altre tecnologie simili sul tuo dispositivo e possono elaborare tali dati per personalizzare i contenuti e gli annunci, nonché fornire funzionalità dei social media e analizzarne il traffico.

  • Archiviare e/o accedere alle informazioni sul tuo dispositivo

    Cookie, identificatori di dispositivi o altre informazioni possono essere memorizzati o resi accessibili sul tuo dispositivo per le finalità sopra indicate.

  • Annunci e contenuti personalizzati, misurazione di annunci e contenuti, approfondimenti sul pubblico e sviluppo di prodotti

    Gli annunci e i contenuti possono essere personalizzati in base a un profilo. È possibile aggiungere più dati per personalizzare meglio annunci e contenuti. È possibile misurare il rendimento degli annunci e dei contenuti. È possibile ricavare informazioni sul pubblico che ha visto gli annunci e i contenuti. Tali dati possono essere utilizzati per sviluppare o migliorare l'esperienza, i sistemi e il software dell'utente.

Cliccando su “Accetto”, acconsenti all'uso di cookie, identificatori di dispositivo, web beacon o altre tecnologie simili. Puoi modificare le impostazioni nel browser del tuo dispositivo.

Per determinati scopi, è possibile fare affidamento su interessi legali, piuttosto che sul consenso. Puoi approfondire questo argomento consultando la nostra Informativa sulla privacy e sui cookie.